Погода Богородицкое

Погода Богородицкое : погода сейчас, прогноз погоды и архив. Всё, что Вы хотите узнать о погоде Богородицкое!

Поиск расширенной информации на нашем сайте:

Другие новости

Новости СМИ2

Главная страница сайта

Новости сайта

03.07.2017

Напоминаем, что на нашем специализированном сайте Метеоцентр.Азия вы можете получить высокодетализированные автоматические прогнозы погоды по пунктам России, СНГ и мира в авиационном формате (включающие направление и скорость ветра, видимость, явления погоды, количество и форму облачности, нижнюю и верхнюю границу облачности).

Рекомендуем: Пожелаю всем кушать Super P-force в объёмах, которыми я ем.

Погода Богородицкое - сегодня

Время (UTC), дата Ветер
(°,м/с) 
Видим.   Явления Облачность Т
(°С)
Тd
(°С)
f(%) Тe
(°С)
Pmin
(гПа)
dP
(гПа)
Po
(мм)
O2
(г/м3)
Тmin Tmax R s Состояние
почвы
12 19.06.18 310 (СЗ) 20000 м    10/3 1000 м верхняя 
[Cu hum|Cs]
+27.6 +11.2 36 +31  1014.6  -0.8  742  269           
15 19.06.18 290 (З) 20000 м    4/3 1000 м верхняя 
[Cu hum|Ci ing]
+27.8 +13.3 41 +34  1013.5  -1.1  741  268           
21 19.06.18 240 (ЮЗ) 10 км    1/0 верхняя 
[Ci fib]
+19.5 +13.7 69 +28  1014.1  741  276           
00 20.06.18 240 (ЮЗ) 10 км    8/3 2000 м средняя, верхняя 
[Ac trans|Ci fib]
+19.3 +14.3 73 +28  1013.9  -0.2  741  276           
09 20.06.18 300 (СЗ) 20000 м    9/5 600 м кучево-дожд., средняя 
[Cb calv|Ac trans]
+26.4 +15.2 50 +36  1013.4  741  269           
21 20.06.18 280 (З) 10 км    ясно 
+16.4 +9.9 65 +18  1015.4  1.5  742  280           
00 21.06.18 260 (З) 10 км    ясно 
+13.5 +9.4 76 +15  1016.3  0.6  742  283           
09 21.06.18 290 (З) 20000 м    1/1 2000 м средняя 
[Ac trans]
+24.7 +10 39 +26  1015.7  -0.6  742  273           
12 21.06.18 270 (З) 20000 м    ясно 
+26.8 +10.7 36 +29  1014.3  -1.2  742  270           
15 21.06.18 260 (З) 20000 м    ясно 
+27.6 +13.2 41 +34  1013.4  -0.8  741  269           
21 21.06.18 тихо ()   10 км    ясно 
+14.9 +11.5 80 +18  1014.5  741  281           
00 22.06.18 тихо ()   10 км    ясно 
+13.3 +12 92 +17  1014.7  0.1  741  282           
09 22.06.18 150 (ЮВ) 20000 м    ясно 
+28.7 +14.1 41 +36  1011.9  -0.7  740  267           
12 22.06.18 170 (Ю) 20000 м    ясно 
+30.1 +13.4 36 +36  1010.4  -1.4  739  266           
15 22.06.18 160 (Ю) 20000 м    ясно 
+30 +13.9 37 +37  1009  -1.3  738  265           
21 22.06.18 тихо ()   10 км    ясно 
+17.2 +13.6 79 +24  1010.8  0.3  738  277           
00 23.06.18 тихо ()   10 км    ясно 
+15.2 +15.2 100 +25  1010.7  -0.2  738  278           
09 23.06.18 120 (ЮВ) 20000 м    1/0 верхняя 
[Ci fib]
+30.6 +13.4 35 +37  1008.1  -0.6  737  265           
12 23.06.18 140 (ЮВ) 20000 м    10/0 верхняя 
[Ci fib]
+32 +13 31 +38  1006.5  -1.5  736  263           
15 23.06.18 120 (ЮВ) 20000 м    9/0 средняя 
[As trans]
+30.1 +15.1 40 +39  1005.6  -1  735  264           
21 23.06.18 060 (СВ) 10 км    9/9 2000 м средняя 
[Ac trans]
+19.1 +13.1 68 +27  1006.3  735  274           
00 24.06.18 210 (ЮЗ) 10 км    9/9 2000 м средняя 
[Ac trans]
+18.9 +13.8 72 +27  1006.7  0.4  736  274           
09 24.06.18 270 (З) 4000 м  ливневой дождь  10/9 600 м кучево-дожд., средняя 
[Cb calv|Ac und]
+16.7 +15.9 95 +28  1009.3  1.6  737  276           
15 24.06.18 270 (З) 20000 м    9/9 600 м кучево-дожд. 
[Cb calv]
+15.9 +13.7 87 +23  1013.2  1.3  740  279      13     
21 24.06.18 280 (З) 10 км    ясно 
+11.4 +9.7 89 +14  1017.3  1.2  743  285           
Время (UTC), дата Ветер
(°,м/с) 
Видим.   Явления Облачность Т
(°С)
Тd
(°С)
f(%) Тe
(°С)
Pmin
(гПа)
dP
(гПа)
Po
(мм)
O2
(г/м3)
Тmin Tmax R s Состояние
почвы

Для получения пояснительной информации подведите курсор к названию столбца.

ПОГОДА Богородицкое - архив

Всё, что Вы хотите узнать о погоде Богородицкое - удобно и подробно!

Выберите нужную дату (начиная с 1 января 2015* года) и нажмите кнопку "Найти".
Будут отображены архивные сводки погоды по пункту Богородицкое, начиная с указанной даты.


Отображать данные в формате CSV (для использования в таблицах Excel)


Внимание! Наш архив погоды предназначен исключительно для личного некоммерческого использования в познавательных целях. Если Вам необходимы официальные справки о состоянии погоды (для производственных, юридических, коммерческих и т.п. целей), обращайтесь в органы Росгидромета.

*Примечание: данная дата относится к архиву по метеостанциям СССР (Россия, СНГ, Балтия).
Архив по метеостанциям Зарубежной Европы и Азии (кроме Китая) хранится 10 дней, по другим регионам земного шара (Китай, Африка, Америка, Австралия, Океания) - 1 день.

Богородицкое - район местоположения метеостанции


Название, широта, долгота, высота метеостанции:
Богородицкое 51.17°ш. 37.35°д. 226 м над ур. моря [Российская Федерация]

Дополнительная информация

В oтличие oт бoльшинства пoгoдных сайтoв мы публикуем пoдрoбную метеoинфoрмацию в детальнoм прoфессиoнальнoм фoрмате.

Характеристики температуры и влажнoсти вoздуха измеряются на высoте 2 м в тени вдали oт зданий и деревьев.
Скoрoсть ветра измеряется на высoте 10 м (на урoвне рoста челoвека скoрoсть ветра ниже в 1.5-2 раза). Если метеoстанция нахoдится в гoрoде или в лесу, тo скoрoсть ветра занижена на 2-4 м/с пo сравнению с oткрытым местoм. Скoрoсть ветра над акватoриями крупных рек и oзёр, а также на вершинах хoлмoв на 2-5 м/с выше, чем в oбычных услoвиях.
Атмoсфернoе давление в разных тoчках местнoсти мoжет значительнo oтличаться oт давления на метеoстанции, в зависимoсти oт услoвий рельефа (при пoдъёме на 10 м давление пoнижается примернo на 1 мм рт.ст.).